,,Stat6,,Stat2,,Stat8,,Stat9,,Stat10,,Wind1,,Wind1,
time,status,PA1M_AVG,status,PR1M_SUM,status,RH1M_AVG,status,SR1M_AVG,status,TA1M_AVG,status,W1dAve1m,status,W1sAve1m,
2009-05-03, 00:00:00,VALID,919.568,VALID,0,VALID,100,VALID,0.0509425,VALID,20.8446,VALID,33,VALID,0,
2009-05-03, 00:01:00,VALID,919.572,VALID,0,VALID,100,VALID,0.0169808,VALID,20.8673,VALID,33,VALID,0,
2009-05-03, 00:02:00,VALID,919.549,VALID,0,VALID,100,VALID,0.0849042,VALID,20.8673,VALID,33,VALID,0,
2009-05-03, 00:03:00,VALID,919.544,VALID,0,VALID,100,VALID,0.0509425,VALID,20.8676,VALID,33,VALID,0,
2009-05-03, 00:04:00,VALID,919.554,VALID,0,VALID,100,VALID,0.0509425,VALID,20.8376,VALID,34,VALID,0,
2009-05-03, 00:05:00,VALID,919.548,VALID,0,VALID,100,VALID,0.0679233,VALID,20.8543,VALID,45,VALID,0.67066,
2009-05-03, 00:06:00,VALID,919.525,VALID,0,VALID,100,VALID,0.0679233,VALID,20.8446,VALID,34,VALID,0.568266,
2009-05-03, 00:07:00,VALID,919.512,VALID,0,VALID,100,VALID,0.0679233,VALID,20.8411,VALID,34,VALID,0.107813,
2009-05-03, 00:08:00,VALID,919.475,VALID,0,VALID,100,VALID,0.0339617,VALID,20.8378,VALID,34,VALID,0.00497159,
2009-05-03, 00:09:00,VALID,919.451,VALID,0,VALID,100,VALID,-0.101885,VALID,20.8267,VALID,34,VALID,0,
2009-05-03, 00:10:00,VALID,919.444,VALID,0,VALID,100,VALID,-0.0849042,VALID,20.821,VALID,34,VALID,0,
2009-05-03, 00:11:00,VALID,919.432,VALID,0,VALID,100,VALID,-0.101885,VALID,20.8207,VALID,353,VALID,0.176599,
2009-05-03, 00:12:00,VALID,919.424,VALID,0,VALID,100,VALID,-0.0849042,VALID,20.8107,VALID,234,VALID,0.00952744,
2009-05-03, 00:13:00,VALID,919.442,VALID,0,VALID,100,VALID,-0.0849042,VALID,20.8175,VALID,234,VALID,0,
2009-05-03, 00:14:00,VALID,919.445,VALID,0,VALID,100,VALID,-0.0679233,VALID,20.8075,VALID,247,VALID,0,
2009-05-03, 00:15:00,VALID,919.427,VALID,0,VALID,100,VALID,-0.0679233,VALID,20.7715,VALID,304,VALID,0.588601,
2009-05-03, 00:16:00,VALID,919.426,VALID,0,VALID,100,VALID,-0.0849042,VALID,20.7361,VALID,360,VALID,1.09032,
2009-05-03, 00:17:00,VALID,919.411,VALID,0,VALID,100,VALID,-0.118866,VALID,20.6679,VALID,292,VALID,1.45579,
2009-05-03, 00:18:00,VALID,919.438,VALID,0,VALID,100,VALID,-0.0849042,VALID,20.6741,VALID,346,VALID,0.944586,
2009-05-03, 00:19:00,VALID,919.449,VALID,0,VALID,100,VALID,-0.0849042,VALID,20.6868,VALID,21,VALID,0.87843,
2009-05-03, 00:20:00,VALID,919.457,VALID,0,VALID,100,VALID,-0.0849042,VALID,20.6936,VALID,25,VALID,1.43906,
2009-05-03, 00:21:00,VALID,919.428,VALID,0,VALID,100,VALID,-0.0849042,VALID,20.6968,VALID,29,VALID,2.06605,
2009-05-03, 00:22:00,VALID,919.457,VALID,0,VALID,100,VALID,-0.0509425,VALID,20.6939,VALID,18,VALID,1.95666,
2009-05-03, 00:23:00,VALID,919.487,VALID,0,VALID,100,VALID,-0.0509425,VALID,20.7031,VALID,27,VALID,1.47856,
2009-05-03, 00:24:00,VALID,919.492,VALID,0,VALID,100,VALID,0.0339617,VALID,20.7147,VALID,37,VALID,0.616016,
2009-05-03, 00:25:00,VALID,919.501,VALID,0,VALID,100,VALID,0.0509425,VALID,20.7442,VALID,34,VALID,0.831214,
2009-05-03, 00:26:00,VALID,919.492,VALID,0,VALID,100,VALID,0.0509425,VALID,20.7407,VALID,40,VALID,1.24107,
2009-05-03, 00:27:00,VALID,919.504,VALID,0,VALID,100,VALID,0.0509425,VALID,20.7469,VALID,28,VALID,0.505526,
2009-05-03, 00:28:00,VALID,919.511,VALID,0,VALID,100,VALID,0.0339617,VALID,20.7599,VALID,20,VALID,0.796875,
2009-05-03, 00:29:00,VALID,919.525,VALID,0,VALID,100,VALID,0.0169808,VALID,20.7407,VALID,38,VALID,0.634629,
2009-05-03, 00:30:00,VALID,919.525,VALID,0,VALID,100,VALID,0,VALID,20.7085,VALID,20,VALID,1.18187,
2009-05-03, 00:31:00,VALID,919.543,VALID,0,VALID,100,VALID,0,VALID,20.679,VALID,16,VALID,1.00152,
2009-05-03, 00:32:00,VALID,919.535,VALID,0,VALID,100,VALID,0,VALID,20.6596,VALID,18,VALID,1.00553,
2009-05-03, 00:33:00,VALID,919.543,VALID,0,VALID,100,VALID,0.0509425,VALID,20.6433,VALID,9,VALID,1.04948,
2009-05-03, 00:34:00,VALID,919.541,VALID,0,VALID,100,VALID,0.0509425,VALID,20.6339,VALID,10,VALID,0.847834,
2009-05-03, 00:35:00,VALID,919.514,VALID,0,VALID,100,VALID,0.0849042,VALID,20.6304,VALID,3,VALID,1.43655,
2009-05-03, 00:36:00,VALID,919.489,VALID,0,VALID,100,VALID,0.0509425,VALID,20.5979,VALID,23,VALID,1.59837,
2009-05-03, 00:37:00,VALID,919.485,VALID,0,VALID,100,VALID,0.0679233,VALID,20.5947,VALID,26,VALID,0.962054,
2009-05-03, 00:38:00,VALID,919.476,VALID,0,VALID,100,VALID,0.0169808,VALID,20.5949,VALID,17,VALID,0.197311,
2009-05-03, 00:39:00,VALID,919.469,VALID,0,VALID,100,VALID,-0.0679233,VALID,20.6127,VALID,26,VALID,0.824886,
2009-05-03, 00:40:00,VALID,919.465,VALID,0,VALID,100,VALID,-0.0849042,VALID,20.6257,VALID,31,VALID,0.862995,
2009-05-03, 00:41:00,VALID,919.473,VALID,0,VALID,100,VALID,-0.0679233,VALID,20.6452,VALID,31,VALID,0.652249,
2009-05-03, 00:42:00,VALID,919.45,VALID,0,VALID,100,VALID,-0.0679233,VALID,20.6452,VALID,26,VALID,1.0396,
2009-05-03, 00:43:00,VALID,919.441,VALID,0,VALID,100,VALID,-0.0849042,VALID,20.6219,VALID,14,VALID,1.21437,
2009-05-03, 00:44:00,VALID,919.437,VALID,0,VALID,100,VALID,-0.0339617,VALID,20.6187,VALID,26,VALID,0.858132,
2009-05-03, 00:45:00,VALID,919.419,VALID,0,VALID,100,VALID,-0.0509425,VALID,20.6062,VALID,17,VALID,0.941746,
2009-05-03, 00:46:00,VALID,919.42,VALID,0,VALID,100,VALID,-0.0509425,VALID,20.5895,VALID,23,VALID,0.921875,
2009-05-03, 00:47:00,VALID,919.408,VALID,0,VALID,100,VALID,-0.0509425,VALID,20.59,VALID,22,VALID,0.944586,
2009-05-03, 00:48:00,VALID,919.398,VALID,0,VALID,100,VALID,-0.0679233,VALID,20.5738,VALID,17,VALID,0.734756,
2009-05-03, 00:49:00,VALID,919.396,VALID,0,VALID,100,VALID,-0.0849042,VALID,20.5575,VALID,17,VALID,0.607922,
2009-05-03, 00:50:00,VALID,919.383,VALID,0,VALID,100,VALID,-0.0679233,VALID,20.5543,VALID,18,VALID,0.53995,
2009-05-03, 00:51:00,VALID,919.374,VALID,0,VALID,100,VALID,-0.0339617,VALID,20.554,VALID,20,VALID,0.0581826,
2009-05-03, 00:52:00,VALID,919.37,VALID,0,VALID,100,VALID,-0.0509425,VALID,20.5508,VALID,20,VALID,0,
2009-05-03, 00:53:00,VALID,919.346,VALID,0,VALID,100,VALID,-0.0509425,VALID,20.5508,VALID,20,VALID,0,
2009-05-03, 00:54:00,VALID,919.35,VALID,0,VALID,100,VALID,0.0339617,VALID,20.533,VALID,20,VALID,0.399009,
2009-05-03, 00:55:00,VALID,919.349,VALID,0,VALID,100,VALID,0.0339617,VALID,20.5362,VALID,20,VALID,0.415698,
2009-05-03, 00:56:00,VALID,919.345,VALID,0,VALID,100,VALID,0.0169808,VALID,20.5322,VALID,20,VALID,0.347384,
2009-05-03, 00:57:00,VALID,919.342,VALID,0,VALID,100,VALID,0.0849042,VALID,20.519,VALID,23,VALID,0.937309,
2009-05-03, 00:58:00,VALID,919.329,VALID,0,VALID,100,VALID,0.0679233,VALID,20.5068,VALID,16,VALID,0.815518,
2009-05-03, 00:59:00,VALID,919.303,VALID,0,VALID,100,VALID,0.0169808,VALID,20.5006,VALID,32,VALID,0.744186,
2009-05-03, 01:00:00,VALID,919.3,VALID,0,VALID,100,VALID,0.0849042,VALID,20.5006,VALID,19,VALID,0.831321,
2009-05-03, 01:01:00,VALID,919.271,VALID,0,VALID,100,VALID,0.0679233,VALID,20.4778,VALID,9,VALID,0.675037,
2009-05-03, 01:02:00,VALID,919.256,VALID,0,VALID,100,VALID,0.0679233,VALID,20.4811,VALID,8,VALID,0.463086,
2009-05-03, 01:03:00,VALID,919.215,VALID,0,VALID,100,VALID,0,VALID,20.4746,VALID,350,VALID,0.443407,
2009-05-03, 01:04:00,VALID,919.184,VALID,0,VALID,100,VALID,0.0679233,VALID,20.4643,VALID,326,VALID,0.550781,
2009-05-03, 01:05:00,VALID,919.147,VALID,0,VALID,100,VALID,0.0679233,VALID,20.4489,VALID,332,VALID,0.214286,
2009-05-03, 01:06:00,VALID,919.108,VALID,0,VALID,100,VALID,0.0509425,VALID,20.4421,VALID,349,VALID,0.997275,
2009-05-03, 01:07:00,VALID,919.066,VALID,0,VALID,100,VALID,0.0509425,VALID,20.4284,VALID,12,VALID,1.16479,
2009-05-03, 01:08:00,VALID,919.04,VALID,0,VALID,100,VALID,0.0509425,VALID,20.4227,VALID,13,VALID,0.883903,
2009-05-03, 01:09:00,VALID,919.037,VALID,0,VALID,100,VALID,-0.0849042,VALID,20.434,VALID,360,VALID,0.759961,
2009-05-03, 01:10:00,VALID,919.018,VALID,0,VALID,100,VALID,-0.0339617,VALID,20.421,VALID,349,VALID,0.571615,
2009-05-03, 01:11:00,VALID,919.015,VALID,0,VALID,100,VALID,-0.0679233,VALID,20.4142,VALID,352,VALID,0.441134,
2009-05-03, 01:12:00,VALID,918.979,VALID,0,VALID,100,VALID,-0.0509425,VALID,20.4012,VALID,360,VALID,1.08185,
2009-05-03, 01:13:00,VALID,918.941,VALID,0,VALID,100,VALID,-0.0509425,VALID,20.379,VALID,21,VALID,1.32218,
2009-05-03, 01:14:00,VALID,918.893,VALID,0,VALID,100,VALID,0,VALID,20.362,VALID,20,VALID,1.1968,
2009-05-03, 01:15:00,VALID,918.833,VALID,0,VALID,100,VALID,-0.0679233,VALID,20.359,VALID,28,VALID,0.995536,
2009-05-03, 01:16:00,VALID,918.783,VALID,0,VALID,100,VALID,-0.0509425,VALID,20.3366,VALID,10,VALID,1.02587,
2009-05-03, 01:17:00,VALID,918.728,VALID,0,VALID,100,VALID,-0.0679233,VALID,20.3106,VALID,3,VALID,0.922061,
2009-05-03, 01:18:00,VALID,918.704,VALID,0,VALID,100,VALID,-0.0509425,VALID,20.3074,VALID,18,VALID,1.01387,
2009-05-03, 01:19:00,VALID,918.665,VALID,0,VALID,100,VALID,-0.0679233,VALID,20.3109,VALID,5,VALID,0.887536,
2009-05-03, 01:20:00,VALID,918.633,VALID,0,VALID,100,VALID,-0.0849042,VALID,20.2876,VALID,25,VALID,0.729167,
2009-05-03, 01:21:00,VALID,918.606,VALID,0,VALID,100,VALID,-0.0169808,VALID,20.2742,VALID,24,VALID,0.461293,
2009-05-03, 01:22:00,VALID,918.584,VALID,0,VALID,100,VALID,-0.0339617,VALID,20.2714,VALID,24,VALID,0.494606,
2009-05-03, 01:23:00,VALID,918.535,VALID,0,VALID,100,VALID,-0.0509425,VALID,20.2485,VALID,24,VALID,0.547894,
2009-05-03, 01:24:00,VALID,918.516,VALID,0,VALID,100,VALID,-0.0339617,VALID,20.2262,VALID,359,VALID,0.668555,
2009-05-03, 01:25:00,VALID,918.497,VALID,0,VALID,100,VALID,0,VALID,20.216,VALID,359,VALID,0.705729,
2009-05-03, 01:26:00,VALID,918.487,VALID,0,VALID,100,VALID,-0.0679233,VALID,20.216,VALID,7,VALID,0.924237,
2009-05-03, 01:27:00,VALID,918.481,VALID,0,VALID,100,VALID,-0.0339617,VALID,20.2192,VALID,14,VALID,0.993676,
2009-05-03, 01:28:00,VALID,918.488,VALID,0,VALID,100,VALID,-0.0169808,VALID,20.21,VALID,11,VALID,0.738814,
2009-05-03, 01:29:00,VALID,918.492,VALID,0,VALID,100,VALID,-0.0169808,VALID,20.1973,VALID,3,VALID,0.717035,
2009-05-03, 01:30:00,VALID,918.47,VALID,0,VALID,100,VALID,-0.0339617,VALID,20.2038,VALID,334,VALID,0.712652,
2009-05-03, 01:31:00,VALID,918.441,VALID,0,VALID,100,VALID,0,VALID,20.1803,VALID,360,VALID,0.878806,
2009-05-03, 01:32:00,VALID,918.419,VALID,0,VALID,100,VALID,-0.0509425,VALID,20.1833,VALID,16,VALID,1.01207,
2009-05-03, 01:33:00,VALID,918.386,VALID,0,VALID,100,VALID,-0.0169808,VALID,20.173,VALID,6,VALID,1.08061,
2009-05-03, 01:34:00,VALID,918.365,VALID,0,VALID,100,VALID,-0.0169808,VALID,20.193,VALID,1,VALID,1.36566,
2009-05-03, 01:35:00,VALID,918.341,VALID,0,VALID,100,VALID,-0.0169808,VALID,20.2028,VALID,14,VALID,1.38754,
2009-05-03, 01:36:00,VALID,918.293,VALID,0,VALID,100,VALID,-0.0169808,VALID,20.1898,VALID,20,VALID,0.971168,
2009-05-03, 01:37:00,VALID,918.262,VALID,0,VALID,100,VALID,-0.0339617,VALID,20.1865,VALID,5,VALID,1.08498,
2009-05-03, 01:38:00,VALID,918.262,VALID,0,VALID,100,VALID,0,VALID,20.1865,VALID,346,VALID,0.836664,
2009-05-03, 01:39:00,VALID,918.221,VALID,0,VALID,100,VALID,-0.101885,VALID,20.194,VALID,359,VALID,0.674107,
2009-05-03, 01:40:00,VALID,918.204,VALID,0,VALID,100,VALID,-0.0679233,VALID,20.1873,VALID,18,VALID,1.34896,
2009-05-03, 01:41:00,VALID,918.185,VALID,0,VALID,100,VALID,-0.0849042,VALID,20.1746,VALID,16,VALID,1.33519,
2009-05-03, 01:42:00,VALID,918.153,VALID,0,VALID,100,VALID,-0.0849042,VALID,20.1681,VALID,1,VALID,1.22674,
2009-05-03, 01:43:00,VALID,918.132,VALID,0,VALID,100,VALID,-0.0849042,VALID,20.1611,VALID,13,VALID,0.971912,
2009-05-03, 01:44:00,VALID,918.116,VALID,0,VALID,100,VALID,-0.0849042,VALID,20.1778,VALID,18,VALID,0.796474,
2009-05-03, 01:45:00,VALID,918.096,VALID,0,VALID,100,VALID,-0.0679233,VALID,20.1643,VALID,18,VALID,0.9288,
2009-05-03, 01:46:00,VALID,918.076,VALID,0,VALID,100,VALID,-0.101885,VALID,20.1713,VALID,11,VALID,0.590402,
2009-05-03, 01:47:00,VALID,918.081,VALID,0,VALID,100,VALID,-0.101885,VALID,20.1583,VALID,13,VALID,0.524479,
2009-05-03, 01:48:00,VALID,918.083,VALID,0,VALID,100,VALID,-0.101885,VALID,20.1316,VALID,25,VALID,0.758194,
2009-05-03, 01:49:00,VALID,918.092,VALID,0,VALID,100,VALID,-0.101885,VALID,20.1284,VALID,15,VALID,0.752778,
2009-05-03, 01:50:00,VALID,918.133,VALID,0,VALID,100,VALID,-0.118866,VALID,20.1159,VALID,20,VALID,0.755078,
2009-05-03, 01:51:00,VALID,918.143,VALID,0,VALID,100,VALID,-0.101885,VALID,20.1027,VALID,4,VALID,0.736683,
2009-05-03, 01:52:00,VALID,918.15,VALID,0,VALID,100,VALID,-0.0849042,VALID,20.077,VALID,348,VALID,0.439862,
2009-05-03, 01:53:00,VALID,918.177,VALID,0,VALID,100,VALID,-0.0849042,VALID,20.0575,VALID,355,VALID,0.396205,
2009-05-03, 01:54:00,VALID,918.155,VALID,0,VALID,100,VALID,-0.101885,VALID,20.061,VALID,359,VALID,1.0186,
2009-05-03, 01:55:00,VALID,918.133,VALID,0,VALID,100,VALID,-0.0849042,VALID,20.0577,VALID,5,VALID,1.07558,
2009-05-03, 01:56:00,VALID,918.114,VALID,0,VALID,100,VALID,-0.0849042,VALID,20.0675,VALID,10,VALID,0.839571,
2009-05-03, 01:57:00,VALID,918.104,VALID,0,VALID,100,VALID,-0.101885,VALID,20.0513,VALID,10,VALID,0.400112,
2009-05-03, 01:58:00,VALID,918.109,VALID,0,VALID,100,VALID,-0.0679233,VALID,20.051,VALID,7,VALID,0.506669,
2009-05-03, 01:59:00,VALID,918.115,VALID,0,VALID,100,VALID,-0.101885,VALID,20.0445,VALID,2,VALID,0.0110176,
2009-05-03, 02:00:00,VALID,918.135,VALID,0,VALID,100,VALID,-0.101885,VALID,20.0318,VALID,2,VALID,0,
2009-05-03, 02:01:00,VALID,918.125,VALID,0,VALID,100,VALID,-0.0679233,VALID,20.025,VALID,2,VALID,0,
2009-05-03, 02:02:00,VALID,918.141,VALID,0,VALID,100,VALID,-0.0509425,VALID,20.0148,VALID,2,VALID,0,
2009-05-03, 02:03:00,VALID,918.125,VALID,0,VALID,100,VALID,-0.101885,VALID,20.0183,VALID,2,VALID,0,
2009-05-03, 02:04:00,VALID,918.121,VALID,0,VALID,100,VALID,-0.0849042,VALID,20.0151,VALID,2,VALID,0,
2009-05-03, 02:05:00,VALID,918.107,VALID,0,VALID,100,VALID,-0.0849042,VALID,20.0256,VALID,2,VALID,0,
2009-05-03, 02:06:00,VALID,918.101,VALID,0,VALID,100,VALID,-0.118866,VALID,20.0058,VALID,2,VALID,0,
2009-05-03, 02:07:00,VALID,918.081,VALID,0,VALID,100,VALID,-0.0679233,VALID,20.0021,VALID,3,VALID,0,
2009-05-03, 02:08:00,VALID,918.061,VALID,0,VALID,100,VALID,-0.101885,VALID,19.9891,VALID,3,VALID,0,
2009-05-03, 02:09:00,VALID,918.039,VALID,0,VALID,100,VALID,0,VALID,19.9843,VALID,8,VALID,0.645167,
2009-05-03, 02:10:00,VALID,918.003,VALID,0,VALID,100,VALID,-0.0849042,VALID,19.9858,VALID,12,VALID,0.932546,
2009-05-03, 02:11:00,VALID,917.998,VALID,0,VALID,100,VALID,-0.101885,VALID,19.9664,VALID,3,VALID,0.844494,
2009-05-03, 02:12:00,VALID,917.976,VALID,0,VALID,100,VALID,-0.0849042,VALID,19.9699,VALID,3,VALID,1.00363,
2009-05-03, 02:13:00,VALID,917.97,VALID,0,VALID,100,VALID,-0.101885,VALID,19.9631,VALID,1,VALID,0.932227,
2009-05-03, 02:14:00,VALID,917.96,VALID,0,VALID,100,VALID,-0.0679233,VALID,19.9566,VALID,1,VALID,0.718217,
2009-05-03, 02:15:00,VALID,917.974,VALID,0,VALID,100,VALID,-0.101885,VALID,19.9564,VALID,354,VALID,0.713728,
2009-05-03, 02:16:00,VALID,917.981,VALID,0,VALID,100,VALID,-0.0679233,VALID,19.9631,VALID,354,VALID,0.461979,
2009-05-03, 02:17:00,VALID,917.975,VALID,0,VALID,100,VALID,-0.101885,VALID,19.9764,VALID,357,VALID,0.715278,
2009-05-03, 02:18:00,VALID,917.965,VALID,0,VALID,100,VALID,-0.0509425,VALID,19.9626,VALID,10,VALID,1.28392,
2009-05-03, 02:19:00,VALID,917.952,VALID,0,VALID,100,VALID,-0.0509425,VALID,19.9427,VALID,24,VALID,1.9117,
2009-05-03, 02:20:00,VALID,917.954,VALID,0,VALID,100,VALID,-0.0509425,VALID,19.9526,VALID,18,VALID,2.07222,
2009-05-03, 02:21:00,VALID,917.942,VALID,0,VALID,100,VALID,-0.0849042,VALID,19.9656,VALID,12,VALID,2.1012,
2009-05-03, 02:22:00,VALID,917.937,VALID,0,VALID,100,VALID,-0.0849042,VALID,20.0413,VALID,30,VALID,1.34851,
2009-05-03, 02:23:00,VALID,917.941,VALID,0,VALID,100,VALID,-0.0509425,VALID,20.1097,VALID,11,VALID,1.14405,
2009-05-03, 02:24:00,VALID,917.946,VALID,0,VALID,100,VALID,-0.0849042,VALID,20.1216,VALID,324,VALID,0.653832,
2009-05-03, 02:25:00,VALID,917.931,VALID,0,VALID,100,VALID,-0.0509425,VALID,20.1246,VALID,351,VALID,0,
2009-05-03, 02:26:00,VALID,917.896,VALID,0,VALID,100,VALID,-0.0509425,VALID,20.1079,VALID,14,VALID,0.620384,
2009-05-03, 02:27:00,VALID,917.874,VALID,0,VALID,100,VALID,-0.0339617,VALID,20.0854,VALID,17,VALID,1.26823,
2009-05-03, 02:28:00,VALID,917.862,VALID,0,VALID,100,VALID,-0.0679233,VALID,20.0473,VALID,6,VALID,1.06957,
2009-05-03, 02:29:00,VALID,917.855,VALID,0,VALID,100,VALID,-0.101885,VALID,20.0345,VALID,327,VALID,1.07422,
2009-05-03, 02:30:00,VALID,917.868,VALID,0,VALID,100,VALID,-0.0679233,VALID,20.0338,VALID,12,VALID,0.38529,
2009-05-03, 02:31:00,VALID,917.857,VALID,0,VALID,100,VALID,-0.101885,VALID,20.054,VALID,19,VALID,0,
2009-05-03, 02:32:00,VALID,917.859,VALID,0,VALID,100,VALID,-0.0509425,VALID,20.06,VALID,18,VALID,0,
2009-05-03, 02:33:00,VALID,917.846,VALID,0,VALID,100,VALID,-0.0849042,VALID,20.0835,VALID,15,VALID,0.209375,
2009-05-03, 02:34:00,VALID,917.822,VALID,0,VALID,100,VALID,-0.0849042,VALID,20.074,VALID,17,VALID,1.6374,
2009-05-03, 02:35:00,VALID,917.826,VALID,0,VALID,100,VALID,-0.0679233,VALID,20.0443,VALID,4,VALID,1.58482,
2009-05-03, 02:36:00,VALID,917.839,VALID,0,VALID,100,VALID,-0.0849042,VALID,20.0607,VALID,17,VALID,1.63108,
2009-05-03, 02:37:00,VALID,917.846,VALID,0,VALID,100,VALID,-0.101885,VALID,20.0829,VALID,11,VALID,0.996366,
2009-05-03, 02:38:00,VALID,917.847,VALID,0,VALID,100,VALID,-0.0509425,VALID,20.0762,VALID,350,VALID,0.472743,
2009-05-03, 02:39:00,VALID,917.84,VALID,0,VALID,100,VALID,-0.0509425,VALID,20.0894,VALID,11,VALID,0.730378,
2009-05-03, 02:40:00,VALID,917.851,VALID,0,VALID,100,VALID,-0.0509425,VALID,20.0954,VALID,18,VALID,0.690549,
2009-05-03, 02:41:00,VALID,917.825,VALID,0,VALID,100,VALID,-0.0339617,VALID,20.1087,VALID,18,VALID,0.00266335,
2009-05-03, 02:42:00,VALID,917.804,VALID,0,VALID,100,VALID,-0.101885,VALID,20.1186,VALID,13,VALID,0,
2009-05-03, 02:43:00,VALID,917.794,VALID,0,VALID,100,VALID,-0.0849042,VALID,20.1184,VALID,350,VALID,0.386523,
2009-05-03, 02:44:00,VALID,917.802,VALID,0,VALID,100,VALID,-0.0849042,VALID,20.1219,VALID,17,VALID,0.676562,
2009-05-03, 02:45:00,VALID,917.81,VALID,0,VALID,100,VALID,-0.101885,VALID,20.0992,VALID,8,VALID,0.794034,
2009-05-03, 02:46:00,VALID,917.812,VALID,0,VALID,100,VALID,-0.101885,VALID,20.0832,VALID,13,VALID,0.911966,
2009-05-03, 02:47:00,VALID,917.823,VALID,0,VALID,100,VALID,-0.0679233,VALID,20.0637,VALID,350,VALID,0.99442,
2009-05-03, 02:48:00,VALID,917.82,VALID,0,VALID,100,VALID,-0.0509425,VALID,20.0432,VALID,352,VALID,0.72202,
2009-05-03, 02:49:00,VALID,917.82,VALID,0,VALID,100,VALID,-0.0679233,VALID,20.0537,VALID,18,VALID,0.00520833,
2009-05-03, 02:50:00,VALID,917.8,VALID,0,VALID,99.999,VALID,-0.0339617,VALID,20.06,VALID,16,VALID,1.01395,
2009-05-03, 02:51:00,VALID,917.777,VALID,0,VALID,99.999,VALID,-0.0679233,VALID,20.0438,VALID,358,VALID,0.964472,
2009-05-03, 02:52:00,VALID,917.753,VALID,0,VALID,99.9977,VALID,-0.0339617,VALID,20.044,VALID,352,VALID,0.833899,
2009-05-03, 02:53:00,VALID,917.741,VALID,0,VALID,100,VALID,-0.101885,VALID,20.0443,VALID,353,VALID,0.431726,
2009-05-03, 02:54:00,VALID,917.75,VALID,0,VALID,100,VALID,-0.101885,VALID,20.0343,VALID,354,VALID,0.336124,
2009-05-03, 02:55:00,VALID,917.768,VALID,0,VALID,100,VALID,-0.101885,VALID,20.0475,VALID,349,VALID,0.377725,
2009-05-03, 02:56:00,VALID,917.793,VALID,0,VALID,100,VALID,-0.0679233,VALID,20.0278,VALID,337,VALID,0.47247,
2009-05-03, 02:57:00,VALID,917.802,VALID,0,VALID,100,VALID,-0.0679233,VALID,20.024,VALID,331,VALID,0.368229,
2009-05-03, 02:58:00,VALID,917.795,VALID,0,VALID,100,VALID,-0.0679233,VALID,20.041,VALID,18,VALID,0.913352,
2009-05-03, 02:59:00,VALID,917.788,VALID,0,VALID,100,VALID,-0.0849042,VALID,20.0405,VALID,20,VALID,0.83647,
2009-05-03, 03:00:00,VALID,917.79,VALID,0,VALID,100,VALID,-0.0849042,VALID,20.0375,VALID,15,VALID,0.960379,
2009-05-03, 03:01:00,VALID,917.784,VALID,0,VALID,100,VALID,-0.0679233,VALID,20.0248,VALID,8,VALID,0.520833,
2009-05-03, 03:02:00,VALID,917.795,VALID,0,VALID,100,VALID,-0.0679233,VALID,20.0153,VALID,11,VALID,0.47496,
2009-05-03, 03:03:00,VALID,917.778,VALID,0,VALID,100,VALID,-0.0849042,VALID,20.0053,VALID,10,VALID,0.120593,
2009-05-03, 03:04:00,VALID,917.745,VALID,0,VALID,100,VALID,-0.0849042,VALID,19.9821,VALID,18,VALID,0.732088,
2009-05-03, 03:05:00,VALID,917.735,VALID,0,VALID,100,VALID,-0.0509425,VALID,19.9888,VALID,21,VALID,1.20087,
2009-05-03, 03:06:00,VALID,917.732,VALID,0,VALID,100,VALID,-0.0679233,VALID,19.9624,VALID,20,VALID,0.977471,
2009-05-03, 03:07:00,VALID,917.734,VALID,0,VALID,100,VALID,-0.0849042,VALID,19.9561,VALID,7,VALID,0.765625,
2009-05-03, 03:08:00,VALID,917.74,VALID,0,VALID,100,VALID,-0.101885,VALID,19.9372,VALID,33,VALID,0.518895,
2009-05-03, 03:09:00,VALID,917.754,VALID,0,VALID,100,VALID,0.0339617,VALID,19.9257,VALID,2,VALID,1.10863,
2009-05-03, 03:10:00,VALID,917.749,VALID,0,VALID,100,VALID,0,VALID,19.9392,VALID,303,VALID,0.537642,
2009-05-03, 03:11:00,VALID,917.724,VALID,0,VALID,100,VALID,0,VALID,19.9491,VALID,281,VALID,0.025436,
2009-05-03, 03:12:00,VALID,917.72,VALID,0,VALID,100,VALID,-0.0169808,VALID,19.9524,VALID,281,VALID,0.0721726,
2009-05-03, 03:13:00,VALID,917.72,VALID,0,VALID,100,VALID,0.0169808,VALID,19.9619,VALID,281,VALID,0.0443979,
2009-05-03, 03:14:00,VALID,917.716,VALID,0,VALID,100,VALID,0.0169808,VALID,19.9589,VALID,297,VALID,0.243555,
2009-05-03, 03:15:00,VALID,917.715,VALID,0,VALID,100,VALID,-0.0169808,VALID,19.9684,VALID,9,VALID,0.758956,
2009-05-03, 03:16:00,VALID,917.703,VALID,0,VALID,100,VALID,0.0169808,VALID,19.9586,VALID,19,VALID,0.822976,
2009-05-03, 03:17:00,VALID,917.711,VALID,0,VALID,100,VALID,0,VALID,19.9486,VALID,20,VALID,0.599964,
2009-05-03, 03:18:00,VALID,917.715,VALID,0,VALID,100,VALID,0.0339617,VALID,19.9486,VALID,20,VALID,0.583031,
2009-05-03, 03:19:00,VALID,917.714,VALID,0,VALID,100,VALID,-0.0169808,VALID,19.9554,VALID,19,VALID,0.453125,
2009-05-03, 03:20:00,VALID,917.72,VALID,0,VALID,100,VALID,0,VALID,19.9586,VALID,19,VALID,0.0842634,
2009-05-03, 03:21:00,VALID,917.725,VALID,0,VALID,100,VALID,0,VALID,19.9651,VALID,19,VALID,0,
2009-05-03, 03:22:00,VALID,917.71,VALID,0,VALID,100,VALID,0,VALID,19.9616,VALID,21,VALID,0.509527,
2009-05-03, 03:23:00,VALID,917.706,VALID,0,VALID,99.9921,VALID,0.0169808,VALID,19.9516,VALID,22,VALID,0.431641,
2009-05-03, 03:24:00,VALID,917.696,VALID,0,VALID,99.9667,VALID,-0.0339617,VALID,19.9631,VALID,22,VALID,0.433061,
2009-05-03, 03:25:00,VALID,917.685,VALID,0,VALID,99.9112,VALID,-0.0339617,VALID,19.9666,VALID,20,VALID,0.0807292,
2009-05-03, 03:26:00,VALID,917.703,VALID,0,VALID,99.8477,VALID,-0.0509425,VALID,19.9696,VALID,357,VALID,0.424893,
2009-05-03, 03:27:00,VALID,917.693,VALID,0,VALID,99.8108,VALID,-0.0849042,VALID,19.9791,VALID,22,VALID,0.358008,
2009-05-03, 03:28:00,VALID,917.707,VALID,0,VALID,99.751,VALID,-0.0509425,VALID,19.9783,VALID,29,VALID,0,
2009-05-03, 03:29:00,VALID,917.705,VALID,0,VALID,99.704,VALID,-0.0509425,VALID,20.0016,VALID,29,VALID,0,
2009-05-03, 03:30:00,VALID,917.712,VALID,0,VALID,99.648,VALID,-0.0509425,VALID,20.0151,VALID,29,VALID,0,
2009-05-03, 03:31:00,VALID,917.705,VALID,0,VALID,99.5425,VALID,-0.0509425,VALID,20.0076,VALID,29,VALID,0,
2009-05-03, 03:32:00,VALID,917.685,VALID,0,VALID,99.5679,VALID,-0.0509425,VALID,20.0111,VALID,29,VALID,0,
2009-05-03, 03:33:00,VALID,917.661,VALID,0,VALID,99.5425,VALID,-0.0849042,VALID,20.0121,VALID,29,VALID,0,
2009-05-03, 03:34:00,VALID,917.636,VALID,0,VALID,99.498,VALID,-0.101885,VALID,19.9796,VALID,29,VALID,0.126563,
2009-05-03, 03:35:00,VALID,917.62,VALID,0,VALID,99.5412,VALID,-0.101885,VALID,19.9661,VALID,29,VALID,0.488467,
2009-05-03, 03:36:00,VALID,917.63,VALID,0,VALID,99.4967,VALID,-0.0849042,VALID,19.9759,VALID,29,VALID,0.457031,
2009-05-03, 03:37:00,VALID,917.621,VALID,0,VALID,99.4471,VALID,-0.101885,VALID,19.9724,VALID,29,VALID,0.326823,
2009-05-03, 03:38:00,VALID,917.608,VALID,0,VALID,99.4827,VALID,-0.0679233,VALID,19.9731,VALID,29,VALID,0.28016,
2009-05-03, 03:39:00,VALID,917.598,VALID,0,VALID,99.5069,VALID,0.0169808,VALID,19.9484,VALID,29,VALID,0.340909,